Regional Weather Roundup
Issued by NWS Charleston, SC

Current Version | Previous Version | Graphics & Text | Print | Product List | Glossary On
Versions: 1 2 3 4 5 6 7 8 9 10 11 12 13 14 15 16 17 18 19 20 21 22 23 24 25 26 27 28 29 30 31 32 33 34 35 36 37 38 39 40 41 42 43 44 45 46 47 48 49 50
000
ASUS42 KCHS 171512
RWRCHS

REGIONAL WEATHER ROUNDUP
NATIONAL WEATHER SERVICE CHARLESTON SC
1000 AM EST FRI NOV 17 2017

NOTE: "FAIR" INDICATES FEW OR NO CLOUDS BELOW 12,000 FEET WITH NO
SIGNIFICANT WEATHER AND/OR OBSTRUCTIONS TO VISIBILITY.

NOT ALL STATIONS ARE QUALITY CONTROLLED. USE DATA WITH CAUTION...
ESPECIALLY DEWPOINT OBSERVATIONS.

SCZ027-030-031-034>040-042>050-171600-
...SOUTHEAST SOUTH CAROLINA...

CITY           SKY/WX    TMP DP  RH WIND       PRES   REMARKS
N CHARLESTON   SUNNY     57  37  47 E12       30.20S
WATERFRONT PRK NOT AVBL
JOHNS ISLAND   FAIR      57  41  54 NE13      30.20S
PINOPOLIS        N/A     52  39  62 E10       30.13S
MONCKS CORNER  FAIR      54  34  47 NE9       30.21S
SUMMERVILLE    FAIR      55  36  47 E7        30.22S
BEAUFORT MCAS  SUNNY     59  38  45 NE10      30.20S
BEAUFORT ARPT  FAIR      57  37  47 NE12G18   30.19S
HILTON HEAD IS SUNNY     59  43  55 NE13      30.20R
WALTERBORO     SUNNY     54  37  54 E9        30.22S
ALLENDALE      FAIR      54  37  54 VRB5      30.21S

...SOUTHERN MIDLANDS AND PEE DEE...

CITY           SKY/WX    TMP DP  RH WIND       PRES   REMARKS
GEORGETOWN     FAIR      54  37  54 NE10      30.23R
KINGSTREE      FAIR      52  34  50 NE9       30.23S
ORANGEBURG     SUNNY     53  34  48 NE12      30.23R
BARNWELL         N/A     55  37  50 NE10      30.23R
AIKEN          FAIR      52  34  50 E8        30.25S
MANNING        FAIR      52  37  58 MISG      30.22S
COLUMBIA       SUNNY     54  38  54 E9        30.23R
SUMTER         SUNNY     52  33  48 E12       30.21R
FLORENCE       SUNNY     51  34  52 E9        30.24S
MYRTLE BEACH   SUNNY     52  35  52 NE14      30.24S
N MYRTLE BEACH SUNNY     52  35  52 NE15G21   30.22S

$$

GAZ063-065-086>088-099>101-113>116-118-119-134>141-150-171600-
...SOUTHEAST GEORGIA...

CITY           SKY/WX    TMP DP  RH WIND       PRES   REMARKS
SAVANNAH ARPT  SUNNY     60  42  51 NE12      30.20R
HUNTER AAF     SUNNY     61  45  56 NE9       30.17R
FORT STEWART   SUNNY     59  43  55 NE8       30.17R
STATESBORO     SUNNY     57  35  44 E7        30.22R
SYLVANIA       SUNNY     55  42  61 E9        30.22S
CLAXTON        FAIR      60  39  45 NE9       30.21R

...CSRA...CENTRAL AND FAR SOUTHEAST GEORGIA...

CITY           SKY/WX    TMP DP  RH WIND       PRES   REMARKS
THOMSON        SUNNY     55  37  50 S7        30.27R
AUGUSTA-BUSH   SUNNY     55  38  52 E8        30.23R
AUGUSTA-DANIEL SUNNY     56  34  43 E9        30.23R
SWAINSBORO     FAIR      57  36  44 E13G18    30.21S
VIDALIA        SUNNY     59  45  58 E13G18    30.20S
EASTMAN        FAIR      58  40  51 NE3       30.23R
HAZLEHURST     FAIR      60  44  57 NE3       30.18S
ALMA           SUNNY     60  49  66 N5        30.18R
WAYCROSS       SUNNY     61  48  61 E5        30.17R
JESUP          FAIR      63  48  59 CALM      30.19R
BAXLEY         FAIR      59  46  63 NE6       30.18R
BRUNSWICK      SUNNY     61  54  77 N5        30.17R
SAINT SIMONS   SUNNY     67  54  63 NE10      30.16R

$$

SCZ027-028-034-036>038-045-046-048>050-GAZ119-141-171600-
...LAKE AND SUPPLEMENTAL COASTAL OBSERVATIONS...

STATION/POSITION TIME  TEMP    WIND        PRES    WAVE   SWELL
                       AIR SEA DIR/SP/G            HT/PER HT/PER/DIR
                 (UTC) (F)     (DEG/KT/KT) (MB)    (FT/S) (FT/S/D)
WINYAH BAY       1345   51      40/ 10     1023.0
LAKE MURRAY      1420   50      70/  5/ 11 1023.0
ACE BASIN NERRS  1345   53      20/  4     1022.0
FORT PULASKI     1448   58 62   50/ 12/ 16 1022.5R
SAPELO ISLAND    1400   59      10/  7     1021.0

$$

ANZ835-935-AMZ111-154-330-350-352-354-370-450-454-472-171600-
...C-MAN AND BUOY OBSERVATIONS...

STATION/POSITION TIME  TEMP    WIND        PRES    WAVE   SWELL
                       AIR SEA DIR/SP/G            HT/PER HT/PER/DIR
                 (UTC) (F)     (DEG/KT/KT) (MB)    (FT/S) (FT/S/D)
BUOY 41004       1450   64 75   40/ 19/ 25 1021.3R   6/ 6   2/130/11
BUOY 41008       1450   66 69   60/ 14/ 17 1020.7R   3/ 9   2/110/ 9
FOLLY BEACH CMAN 1400   54      30/ 14/ 16 1022.7R
CAPERS NEARSHORE 1408   53 64   40/ 17/ 23 1021.8R
FRIPP NEARSHORE  1408   57 63   50/ 14/ 25 1021.8R


STATION/POSITION TIME  TEMP    WIND        PRES    WAVE   SWELL
                       AIR SEA DIR/SP/G            HT/PER HT/PER/DIR
                 (UTC) (F)     (DEG/KT/KT) (MB)    (FT/S) (FT/S/D)
5E ST. MARYS GA  1430      67                N/A     2/ 7   2/ 80/11
FRYING PAN BUOY  1450   57 72   40/ 19/ 23 1021.6F   6/ 6   2/100/10
BUOY 41025       1450   53 65  350/ 17/ 23 1022.1R   6/ 7   3/ 80/11
CAPE LOOKOUT NC  1400   49      10/ 14/ 20 1023.0R
BUOY 41002       1450   70 77   30/ 16/ 21 1018.2R   7/ 6   5/ 50/12
BUOY 41010       NOT AVBL
ST AUGUSTINE FL  1500   68 67   40/  9/  9 1020.5R


$$




USA.gov is the U.S. government's official web portal to all federal, state and local government web resources and services.